Home   Weather   Palo Alto   Past weeks

Flag for USA Past Weather in Palo Alto, California, USA — Yesterday and Last 2 Weeks

Now
59 °F

Clear.


Feels Like: 59 °F
Forecast: 57 / 79 °F
Wind: 5 mph from Northwest

Location: Moffett Field

Current Time: May 23, 2017 at 1:49:30 am

Latest Report: May 23, 2017 at 12:56 am


Visibility: 10 mi

Pressure: 29.97 "Hg

Humidity: 87%

Dew Point: 55 °F

Location of Palo AltoLocation

Past Weather in Palo Alto — Graph

°F

Palo Alto Temperature Yesterday

Maximum temperature yesterday: 77 °F (at 2:56 pm)
Minimum temperature yesterday: 57 °F (at 3:56 am)
Average temperature yesterday: 64 °F

High & Low Weather Summary for the Past Weeks

 TemperatureHumidityPressure
High85 °F (May 19, 2:56 pm)93% (May 22, 5:56 am)30.19 "Hg (May 22, 5:56 am)
Low48 °F (May 15, 3:56 am)24% (May 18, 3:56 pm)29.81 "Hg (May 9, 4:56 pm)
Average61 °F66%30.00 "Hg
* Reported May 7 11:56 pm — May 22 11:56 pm, Palo Alto. Weather by CustomWeather, © 2017

Note: Actual official high and low records may vary slightly from our data, if they occured in-between our weather recording intervals... More about our weather records

Advertising

Palo Alto Weather History for the Previous 24 Hours

Scroll right to see more
 ConditionsComfort  
Time TempWeatherWind HumidityBarometerVisibility
11:56 pm
Mon, May 22
60 °FClear.3 mph86%29.98 "Hg10 mi
10:56 pm60 °FClear.3 mph83%29.98 "Hg10 mi
9:56 pm61 °FClear.5 mph83%29.97 "Hg10 mi
8:56 pm63 °FClear.7 mph81%29.96 "Hg10 mi
7:56 pm65 °FSunny.9 mph76%29.94 "Hg10 mi
6:56 pm68 °FSunny.9 mph70%29.93 "Hg10 mi
5:56 pm72 °FSunny.13 mph59%29.92 "Hg10 mi
4:56 pm74 °FSunny.13 mph52%29.93 "Hg10 mi
3:56 pm76 °FSunny.12 mph54%29.93 "Hg10 mi
2:56 pm77 °FSunny.12 mph54%29.94 "Hg10 mi
1:56 pm74 °FSunny.12 mph56%29.95 "Hg10 mi
12:56 pm73 °FSunny.8 mph57%29.96 "Hg10 mi
11:56 am70 °FSunny.6 mph64%29.98 "Hg10 mi
10:56 am65 °FSunny.7 mph76%29.99 "Hg10 mi
9:56 am63 °FSunny.6 mph78%30.00 "Hg10 mi
8:56 am62 °FPassing clouds.6 mph80%29.99 "Hg10 mi
7:56 am58 °FOvercast.No wind90%29.99 "Hg10 mi
6:56 am57 °FOvercast.No wind93%29.98 "Hg10 mi
5:56 am57 °FLow clouds.3 mph93%29.97 "Hg10 mi
4:56 am57 °FPassing clouds.No wind87%29.96 "Hg10 mi
4:05 am57 °FPassing clouds.3 mph87%29.95 "Hg10 mi
3:56 am57 °FPassing clouds.No wind87%29.96 "Hg10 mi
2:56 am58 °FClear.3 mph87%29.97 "Hg10 mi
1:56 am58 °FClear.3 mph87%29.98 "Hg10 mi
Weather by CustomWeather, © 2017

See weather overviewHow to use our weather pages